Regional Weather Roundup
Issued by NWS

Home | Current Version | Previous Version | Text Only | Print | Product List | Glossary Off
Versions: 1 2 3 4 5 6 7 8 9 10 11 12 13 14 15 16 17 18 19 20 21 22 23 24 25 26 27 28 29 30 31 32 33 34 35 36 37 38 39 40 41 42 43 44 45 46 47 48 49 50

000
ASUS43 KDMX 291707
RWRIA

WEATHER ROUNDUP FOR IOWA
NATIONAL WEATHER SERVICE DES MOINES IA
1200 PM CDT MON JUN 29 2015

NOTE: "FAIR" INDICATES FEW OR NO CLOUDS BELOW 12,000 FEET WITH NO
SIGNIFICANT WEATHER AND/OR OBSTRUCTIONS TO VISIBILITY.

* - THESE STATIONS ARE NOT NWS STATIONS...THUS NOT UNDER NWS
QUALITY CONTROL.  THEY ALSO DO NOT REPORT WEATHER SUCH
AS PRECIPITATION OR FOG.

IAZ001>003-012>014-020>022-031>034-043>046-291800-
   NORTHWEST IOWA

CITY           SKY/WX    TMP DP  RH WIND       PRES   REMARKS
CARROLL *      MOSUNNY   81  64  57 N14       29.92S HX  82
CHEROKEE *     SUNNY     79  64  61 NW8G17    29.93R HX  81
DENISON *      SUNNY     79  64  61 NW8       29.92S HX  81
LE MARS *      SUNNY     79  64  61 NW10      29.95S HX  81
ORANGE CITY *  SUNNY     77  63  61 NW10      29.95R
SHELDON *      SUNNY     79  63  57 NW10      29.93R HX  80
SIOUX CITY     SUNNY     80  63  55 NW7       29.95S HX  81
SPENCER        SUNNY     80  62  54 NW10      29.92S HX  81
STORM LAKE *   MOSUNNY   79  63  57 N14       29.94S HX  80
$$

IAZ055>058-069>071-079>083-090>094-291800-
   SOUTHWEST IOWA

CITY           SKY/WX    TMP DP  RH WIND       PRES   REMARKS
ATLANTIC *     SUNNY     81  64  57 NW12G17   29.94R HX  82
AUDUBON *      SUNNY     81  64  57 NW8G16    29.94S HX  82
CLARINDA *     SUNNY     81  68  65 NW10G16   29.95S HX  83
COUNCIL BLFS * SUNNY     79  66  65 NW9       29.96R HX  81
CRESTON *      SUNNY     79  63  57 NW10G16   29.93S HX  80
HARLAN  *      SUNNY     79  68  69 N8G18     29.97S HX  81
LAMONI         MOSUNNY   82  64  54 NW13      29.92S HX  83
RED OAK *      SUNNY     81  64  57 N9        29.95R HX  82
SHENANDOAH *   SUNNY     81  66  61 N9        29.95S HX  83
$$

IAZ047>049-059>061-072>074-084-291800-
   CENTRAL IOWA

CITY           SKY/WX    TMP DP  RH WIND       PRES   REMARKS
AMES           SUNNY     79  65  62 NW10      29.88S HX  81
ANKENY *       SUNNY     79  66  65 NW12G17   29.88S HX  81
CHARITON *     SUNNY     79  66  65 NW12      29.90S HX  81
DES MOINES     CLOUDY    82  63  52 NW12      29.88S HX  83
GRINNELL*      MOSUNNY   77  66  69 NW8       29.88S
KNOXVILLE *    SUNNY     79  64  61 NW12      29.87S HX  81
MARSHALLTOWN   SUNNY     78  67  68 NW9       29.87S HX  80
PELLA *        MOSUNNY   79  70  73 NW8G17    29.89S HX  81
PERRY *          N/A     79  63  57 NW13      29.91R HX  80
$$

IAZ004>006-015-016-023>025-035-036-291800-
   NORTH CENTRAL IOWA

CITY           SKY/WX    TMP DP  RH WIND       PRES   REMARKS
ALGONA *       SUNNY     77  63  61 NW9       29.91R
CLARION *      MOSUNNY   77  64  65 NW14      29.89S
ESTHERVILLE    SUNNY     77  63  61 NW12      29.91S
FORT DODGE *   SUNNY     77  64  65 N9        29.91S
MASON CITY     SUNNY     79  66  64 NW14      29.89S HX  81
FOREST CITY *  SUNNY     75  64  69 NW10G18   29.89R
IOWA FALLS *     N/A     77  64  65 NW9       29.89S
$$

IAZ007>011-017>019-026>030-037>042-050>054-066-291800-
   NORTHEAST IOWA

CITY           SKY/WX    TMP DP  RH WIND       PRES   REMARKS
CEDAR RAPIDS   SUNNY     76  66  71 NW8       29.85S
CHARLES CITY * SUNNY     77  68  73 NW10      29.87S
CLINTON *      PTSUNNY   70  64  83 SW7       29.87S
DECORAH *        N/A    N/A N/A N/A MISG        N/A
DUBUQUE        MOSUNNY   73  63  70 NW8       29.85S
MONTICELLO *   PTSUNNY   73 -35   1 W7        29.85S
OELWEIN *      MOSUNNY   75  66  73 NW6       29.87R
WATERLOO       MOSUNNY   78  65  63 NW10      29.85R HX  80
$$

IAZ064-065-067-068-078-291800-
   EAST CENTRAL IOWA

CITY           SKY/WX    TMP DP  RH WIND       PRES   REMARKS
DAVENPORT      PTSUNNY   71  65  81 W8        29.86R
IOWA CITY      SUNNY     77  64  64 N5        29.86S
MT. PLEASANT * MOSUNNY   79  61  53 NW5       29.87S HX  80
MUSCATINE *    PTSUNNY   73  64  73 N7        29.86S
QUAD CITIES    CLOUDY    71  63  75 W8        29.86R
$$

IAZ062-063-075>077-085>089-095>099-291800-
   SOUTHEAST IOWA

CITY           SKY/WX    TMP DP  RH WIND       PRES   REMARKS
BURLINGTON     PTSUNNY   73  66  78 CALM      29.87S
FAIRFIELD *    SUNNY     77  66  69 NW8       29.87S
FORT MADISON * MOSUNNY   73  68  83 NW6       29.88S
KEOKUK *       PTSUNNY   75  66  73 N6        29.87R
OSKALOOSA *      N/A     79  68  69 NW8       29.87S HX  81
CENTERVILLE *  MOSUNNY   79  66  65 NW9       29.91S HX  81
OTTUMWA        MOSUNNY   79  69  71 W10       29.86R HX  81
WASHINGTON *   MOSUNNY   77  68  73 NW7       29.88S
$$

ABBREVIATIONS USED IN REMARKS
   TC - TEMPERATURES IN CELSIUS
  WCI - WIND CHILL INDEX
   HX - HEAT INDEX
  VSB - VISIBILITY
$$




USA.gov is the U.S. government's official web portal to all federal, state and local government web resources and services.